This is the latest recevied weather packets stored in our database for station/object WX4ET. If no packets are shown the sender has not sent any weather packets the latest 10 day(s).
| Time | Temp. | Humidity | Pressure | Rain* | Wind** | Luminosity | Snow |
|---|---|---|---|---|---|---|---|
| 1777828183 | 14.44° C | 40% | 1015.3 hPa | 0 mm | - | 638 W/m² | - |
| 1777827879 | 14.44° C | 38% | 1015.4 hPa | 0 mm | - | 638 W/m² | - |
| 1777827576 | 14.44° C | 40% | 1015.7 hPa | 0 mm | - | 636 W/m² | - |
| 1777827274 | 15° C | 39% | 1015.5 hPa | 0 mm | - | 650 W/m² | - |
| 1777826970 | 15° C | 39% | 1015.7 hPa | 0 mm | - | 650 W/m² | - |
| 1777826667 | 14.44° C | 42% | 1015.5 hPa | 0 mm | - | 615 W/m² | - |
| 1777826363 | 14.44° C | 39% | 1015.8 hPa | 0 mm | - | 613 W/m² | - |
| 1777826061 | 15° C | 40% | 1016 hPa | 0 mm | - | 622 W/m² | - |
| 1777825758 | 15.56° C | 36% | 1016 hPa | 0 mm | - | 620 W/m² | - |
| 1777825456 | 13.89° C | 41% | 1016.1 hPa | 0 mm | - | 623 W/m² | - |
| 1777825152 | 13.33° C | 42% | 1016.2 hPa | 0 mm | - | 591 W/m² | - |
| 1777824849 | 13.89° C | 46% | 1016 hPa | 0 mm | - | 613 W/m² | - |
| 1777824545 | 13.89° C | 44% | 1016.3 hPa | 0 mm | - | 609 W/m² | - |
| 1777824242 | 13.89° C | 44% | 1016.1 hPa | 0 mm | - | 615 W/m² | - |
| 1777823937 | 13.89° C | 46% | 1016.2 hPa | 0 mm | - | 618 W/m² | - |
| 1777823635 | 13.33° C | 42% | 1016.2 hPa | 0 mm | - | 616 W/m² | - |
| 1777823331 | 13.33° C | 45% | 1016.3 hPa | 0 mm | - | 558 W/m² | - |
| 1777823029 | 12.22° C | 40% | 1016.3 hPa | 0 mm | - | 543 W/m² | - |
| 1777822727 | 12.78° C | 42% | 1016.2 hPa | 0 mm | - | 592 W/m² | - |
| 1777822425 | 12.78° C | 43% | 1016.4 hPa | 0 mm | - | 591 W/m² | - |
| 1777822122 | 13.33° C | 47% | 1016.7 hPa | 0 mm | - | 584 W/m² | - |
| 1777821819 | 14.44° C | 39% | 1016.6 hPa | 0 mm | - | 573 W/m² | - |
| 1777821511 | 13.33° C | 45% | 1016.6 hPa | 0 mm | - | 594 W/m² | - |
| 1777821209 | 13.89° C | 43% | 1016.6 hPa | 0 mm | - | 604 W/m² | - |
| 1777820906 | 12.78° C | 42% | 1016.9 hPa | 0 mm | - | 573 W/m² | - |
* Rain latest hour (hover to see other rain measurements)
** Current wind speed in m/s (hover to see current wind gust speed)